| time (UTC) | temp F | wind direction | speed knots | gust knots | rain 1hr in | rain 24hr in | rain mn in | humidity % | barometer mb |
| 20260508131556 | 52 | 332 | 1.7 | 5.2 | 0.00 | 0.00 | 0.00 | 56 | 1015.0 |
| 20260508131047 | 52 | 7 | 2.6 | 7.0 | 0.00 | 0.00 | 0.00 | 56 | 1014.9 |
| 20260508130549 | 51 | 337 | 2.6 | 7.0 | 0.00 | 0.00 | 0.00 | 57 | 1015.0 |
| 20260508130056 | 50 | 345 | 2.6 | 5.2 | 0.00 | 0.00 | 0.00 | 59 | 1014.9 |
| 20260508125547 | 49 | 343 | 0.9 | 4.3 | 0.00 | 0.00 | 0.00 | 63 | 1014.9 |
| 20260508125046 | 48 | 331 | 0.9 | 3.5 | 0.00 | 0.00 | 0.00 | 65 | 1014.8 |
| 20260508124555 | 47 | 0 | 0.0 | 3.5 | 0.00 | 0.00 | 0.00 | 67 | 1015.0 |
| 20260508124049 | 46 | 330 | 0.9 | 3.5 | 0.00 | 0.00 | 0.00 | 67 | 1014.9 |
| 20260508123549 | 45 | 0 | 0.0 | 2.6 | 0.00 | 0.00 | 0.00 | 68 | 1014.9 |
| 20260508123056 | 44 | 212 | 0.9 | 2.6 | 0.00 | 0.00 | 0.00 | 71 | 1014.9 |
| 20260508122548 | 44 | 0 | 0.0 | 2.6 | 0.00 | 0.00 | 0.00 | 74 | 1014.8 |
| 20260508122048 | 43 | 0 | 0.9 | 3.5 | 0.00 | 0.00 | 0.00 | 75 | 1014.7 |
| 20260508121556 | 42 | 214 | 1.7 | 3.5 | 0.00 | 0.00 | 0.00 | 75 | 1014.7 |
| 20260508121047 | 42 | 210 | 1.7 | 3.5 | 0.00 | 0.00 | 0.00 | 76 | 1014.6 |
| 20260508120550 | 42 | 205 | 1.7 | 3.5 | 0.00 | 0.00 | 0.00 | 76 | 1014.6 |
| 20260508120057 | 42 | 195 | 1.7 | 3.5 | 0.00 | 0.00 | 0.00 | 77 | 1014.5 |
| 20260508115546 | 41 | 193 | 1.7 | 3.5 | 0.00 | 0.00 | 0.00 | 77 | 1014.4 |
| 20260508115046 | 41 | 214 | 0.9 | 2.6 | 0.00 | 0.00 | 0.00 | 77 | 1014.4 |
| 20260508114552 | 41 | 250 | 0.0 | 2.6 | 0.00 | 0.00 | 0.00 | 76 | 1014.4 |
| 20260508114046 | 41 | 0 | 0.0 | 2.6 | 0.00 | 0.00 | 0.00 | 76 | 1014.3 |
| 20260508113547 | 41 | 0 | 0.0 | 0.0 | 0.00 | 0.00 | 0.00 | 76 | 1014.3 |
| 20260508113052 | 41 | 0 | 0.0 | 2.6 | 0.00 | 0.00 | 0.00 | 75 | 1014.3 |
| 20260508112548 | 42 | 0 | 0.0 | 2.6 | 0.00 | 0.00 | 0.00 | 73 | 1014.1 |
| 20260508112049 | 42 | 0 | 0.0 | 1.7 | 0.00 | 0.00 | 0.00 | 72 | 1014.2 |
| 20260508111601 | 42 | 0 | 0.0 | 1.7 | 0.00 | 0.00 | 0.00 | 72 | 1014.1 |
| 20260508111048 | 42 | 345 | 0.0 | 2.6 | 0.00 | 0.00 | 0.00 | 72 | 1013.7 |
| 20260508110546 | 41 | 0 | 0.9 | 3.5 | 0.00 | 0.00 | 0.00 | 73 | 1013.7 |
| 20260508110057 | 41 | 340 | 1.7 | 6.1 | 0.00 | 0.00 | 0.00 | 74 | 1013.7 |
| 20260508105547 | 41 | 341 | 2.6 | 6.1 | 0.00 | 0.00 | 0.00 | 73 | 1013.6 |
| 20260508105049 | 41 | 333 | 3.5 | 4.3 | 0.00 | 0.00 | 0.00 | 73 | 1013.5 |
| 20260508104553 | 41 | 324 | 1.7 | 4.3 | 0.00 | 0.00 | 0.00 | 73 | 1013.4 |
| 20260508104046 | 41 | 333 | 1.7 | 5.2 | 0.00 | 0.00 | 0.00 | 73 | 1013.4 |
| 20260508103548 | 41 | 336 | 2.6 | 6.1 | 0.00 | 0.00 | 0.00 | 73 | 1013.4 |
| 20260508103054 | 41 | 329 | 3.5 | 6.1 | 0.00 | 0.00 | 0.00 | 73 | 1013.4 |
| 20260508102548 | 41 | 341 | 4.3 | 6.1 | 0.00 | 0.00 | 0.00 | 73 | 1013.3 |
| 20260508102047 | 41 | 331 | 4.3 | 7.8 | 0.00 | 0.00 | 0.00 | 72 | 1013.3 |
| 20260508101554 | 41 | 344 | 3.5 | 7.8 | 0.00 | 0.00 | 0.00 | 71 | 1013.1 |
| 20260508101050 | 41 | 323 | 4.3 | 7.8 | 0.00 | 0.00 | 0.00 | 71 | 1013.1 |
| 20260508100550 | 41 | 319 | 4.3 | 7.8 | 0.00 | 0.00 | 0.00 | 71 | 1013.1 |
| 20260508100055 | 41 | 340 | 4.3 | 7.8 | 0.00 | 0.00 | 0.00 | 72 | 1013.0 |
| 20260508095553 | 41 | 331 | 4.3 | 7.8 | 0.00 | 0.00 | 0.00 | 72 | 1013.0 |
| 20260508095046 | 41 | 355 | 5.2 | 7.8 | 0.00 | 0.00 | 0.00 | 72 | 1013.0 |
| 20260508094606 | 41 | 338 | 4.3 | 7.8 | 0.00 | 0.00 | 0.00 | 72 | 1012.7 |
| 20260508094048 | 41 | 317 | 5.2 | 7.8 | 0.00 | 0.00 | 0.00 | 73 | 1012.7 |
| 20260508093548 | 41 | 349 | 5.2 | 7.8 | 0.00 | 0.00 | 0.00 | 73 | 1012.9 |
| 20260508093055 | 41 | 342 | 5.2 | 7.8 | 0.00 | 0.00 | 0.00 | 74 | 1012.8 |
| 20260508092547 | 41 | 345 | 6.1 | 8.7 | 0.00 | 0.00 | 0.00 | 74 | 1012.7 |
| 20260508092046 | 41 | 348 | 6.1 | 8.7 | 0.00 | 0.00 | 0.00 | 74 | 1012.6 |
| 20260508091600 | 41 | 342 | 6.1 | 8.7 | 0.00 | 0.00 | 0.00 | 75 | 1012.8 |
| 20260508091048 | 41 | 335 | 6.1 | 7.8 | 0.00 | 0.00 | 0.00 | 76 | 1012.9 |
| 20260508090547 | 41 | 336 | 6.1 | 7.8 | 0.00 | 0.00 | 0.00 | 76 | 1012.9 |
| 20260508090056 | 41 | 340 | 6.1 | 7.8 | 0.00 | 0.00 | 0.00 | 75 | 1012.8 |
| 20260508085548 | 41 | 339 | 5.2 | 7.0 | 0.00 | 0.02 | 0.00 | 75 | 1012.9 |
| 20260508085048 | 41 | 341 | 5.2 | 7.0 | 0.00 | 0.02 | 0.00 | 75 | 1013.0 |
| 20260508084557 | 41 | 338 | 4.3 | 8.7 | 0.00 | 0.02 | 0.00 | 75 | 1013.0 |
| 20260508084049 | 41 | 325 | 4.3 | 8.7 | 0.00 | 0.02 | 0.00 | 76 | 1013.0 |
| 20260508083549 | 41 | 346 | 5.2 | 8.7 | 0.00 | 0.02 | 0.00 | 76 | 1012.8 |
| 20260508083100 | 41 | 347 | 4.3 | 6.1 | 0.00 | 0.02 | 0.00 | 76 | 1012.9 |
| 20260508082550 | 41 | 344 | 3.5 | 6.1 | 0.00 | 0.02 | 0.00 | 76 | 1013.0 |
| 20260508082048 | 42 | 356 | 4.3 | 5.2 | 0.00 | 0.02 | 0.00 | 76 | 1012.9 |
| 20260508081627 | 42 | 356 | 3.5 | 6.1 | 0.00 | 0.02 | 0.00 | 75 | 1013.0 |
| 20260508081046 | 42 | 342 | 4.3 | 6.1 | 0.00 | 0.02 | 0.00 | 75 | 1012.9 |
| 20260508080552 | 42 | 344 | 3.5 | 6.1 | 0.00 | 0.02 | 0.00 | 75 | 1012.9 |
| 20260508080054 | 42 | 349 | 2.6 | 5.2 | 0.00 | 0.02 | 0.00 | 75 | 1012.9 |
| 20260508075546 | 42 | 353 | 3.5 | 5.2 | 0.00 | 0.02 | 0.00 | 75 | 1012.8 |
| 20260508075046 | 42 | 347 | 3.5 | 5.2 | 0.00 | 0.02 | 0.00 | 75 | 1012.8 |
| 20260508074556 | 42 | 347 | 3.5 | 6.1 | 0.00 | 0.02 | 0.00 | 75 | 1012.7 |
| 20260508074050 | 42 | 345 | 3.5 | 6.1 | 0.00 | 0.02 | 0.00 | 76 | 1012.7 |
| 20260508073548 | 43 | 340 | 3.5 | 5.2 | 0.00 | 0.02 | 0.00 | 76 | 1012.8 |
| 20260508073058 | 43 | 345 | 2.6 | 6.1 | 0.00 | 0.02 | 0.00 | 76 | 1012.8 |
| 20260508072548 | 43 | 347 | 3.5 | 6.1 | 0.00 | 0.02 | 0.00 | 76 | 1012.7 |
| 20260508072048 | 43 | 336 | 3.5 | 7.0 | 0.00 | 0.02 | 0.00 | 75 | 1012.7 |
| 20260508071557 | 43 | 333 | 4.3 | 7.0 | 0.00 | 0.02 | 0.00 | 75 | 1012.8 |
| 20260508071048 | 43 | 325 | 4.3 | 7.0 | 0.00 | 0.02 | 0.00 | 74 | 1012.6 |
| 20260508070547 | 43 | 335 | 5.2 | 8.7 | 0.00 | 0.02 | 0.00 | 73 | 1012.6 |
| 20260508070106 | 43 | 323 | 5.2 | 8.7 | 0.00 | 0.02 | 0.00 | 73 | 1012.6 |
| 20260508065547 | 43 | 324 | 5.2 | 9.6 | 0.00 | 0.02 | 0.00 | 74 | 1012.4 |
| 20260508065046 | 44 | 333 | 6.1 | 9.6 | 0.00 | 0.02 | 0.00 | 74 | 1012.6 |
| 20260508064558 | 44 | 340 | 6.1 | 10.4 | 0.00 | 0.02 | 0.00 | 74 | 1012.6 |
| 20260508064050 | 44 | 344 | 6.1 | 10.4 | 0.00 | 0.02 | 0.00 | 74 | 1012.7 |
| 20260508063548 | 44 | 336 | 6.1 | 10.4 | 0.00 | 0.02 | 0.00 | 75 | 1012.7 |
| 20260508063059 | 44 | 346 | 5.2 | 7.8 | 0.00 | 0.02 | 0.00 | 75 | 1012.7 |
| 20260508062546 | 44 | 339 | 4.3 | 6.1 | 0.00 | 0.02 | 0.00 | 75 | 1012.7 |
| 20260508062049 | 44 | 343 | 4.3 | 6.1 | 0.00 | 0.02 | 0.00 | 75 | 1012.7 |
| 20260508061557 | 44 | 352 | 3.5 | 6.1 | 0.00 | 0.02 | 0.00 | 74 | 1012.8 |
| 20260508061051 | 44 | 339 | 4.3 | 7.0 | 0.00 | 0.02 | 0.00 | 74 | 1012.8 |
| 20260508060549 | 44 | 349 | 5.2 | 7.0 | 0.00 | 0.02 | 0.00 | 74 | 1012.9 |
| 20260508060100 | 44 | 340 | 4.3 | 7.8 | 0.00 | 0.02 | 0.00 | 74 | 1013.1 |
| 20260508055549 | 45 | 354 | 4.3 | 9.6 | 0.00 | 0.02 | 0.00 | 74 | 1013.0 |
| 20260508055049 | 45 | 331 | 6.1 | 9.6 | 0.00 | 0.02 | 0.00 | 74 | 1013.0 |
| 20260508054559 | 45 | 338 | 6.1 | 9.6 | 0.00 | 0.02 | 0.00 | 74 | 1013.0 |
| 20260508054049 | 45 | 341 | 6.1 | 9.6 | 0.00 | 0.02 | 0.00 | 74 | 1012.9 |
| 20260508053549 | 45 | 325 | 6.1 | 9.6 | 0.00 | 0.02 | 0.00 | 75 | 1013.0 |
| 20260508053057 | 45 | 338 | 5.2 | 9.6 | 0.00 | 0.02 | 0.00 | 75 | 1013.0 |
| 20260508052548 | 45 | 338 | 5.2 | 9.6 | 0.00 | 0.02 | 0.00 | 75 | 1012.9 |
| 20260508052050 | 45 | 333 | 5.2 | 9.6 | 0.00 | 0.02 | 0.00 | 75 | 1012.7 |
| 20260508051553 | 45 | 345 | 6.1 | 10.4 | 0.00 | 0.02 | 0.00 | 75 | 1012.8 |
| 20260508051050 | 46 | 326 | 7.0 | 10.4 | 0.00 | 0.02 | 0.00 | 75 | 1012.7 |
| 20260508050551 | 46 | 324 | 6.1 | 12.2 | 0.00 | 0.02 | 0.00 | 76 | 1012.6 |
| 20260508050058 | 46 | 343 | 5.2 | 12.2 | 0.00 | 0.02 | 0.00 | 75 | 1012.6 |
| 20260508045548 | 46 | 345 | 7.0 | 11.3 | 0.00 | 0.02 | 0.00 | 74 | 1012.5 |
| 20260508045050 | 46 | 328 | 7.8 | 11.3 | 0.00 | 0.02 | 0.00 | 74 | 1012.5 |
| 20260508044603 | 47 | 342 | 8.7 | 13.9 | 0.00 | 0.02 | 0.00 | 74 | 1012.4 |
| 20260508044052 | 47 | 326 | 7.8 | 13.9 | 0.00 | 0.02 | 0.00 | 73 | 1012.3 |
| 20260508043552 | 47 | 326 | 7.8 | 13.9 | 0.00 | 0.02 | 0.00 | 72 | 1012.3 |
| 20260508043059 | 47 | 329 | 8.7 | 13.0 | 0.00 | 0.02 | 0.00 | 72 | 1012.1 |
| 20260508042548 | 47 | 332 | 9.6 | 13.9 | 0.00 | 0.02 | 0.00 | 72 | 1011.9 |
| 20260508042048 | 47 | 328 | 8.7 | 14.8 | 0.00 | 0.02 | 0.00 | 72 | 1011.9 |
| 20260508041557 | 47 | 331 | 10.4 | 16.5 | 0.00 | 0.02 | 0.00 | 72 | 1011.8 |
| 20260508041048 | 47 | 338 | 10.4 | 16.5 | 0.00 | 0.02 | 0.00 | 73 | 1011.7 |
| 20260508040547 | 47 | 334 | 11.3 | 16.5 | 0.00 | 0.02 | 0.00 | 73 | 1011.8 |
| 20260508040104 | 47 | 339 | 8.7 | 13.9 | 0.00 | 0.02 | 0.00 | 73 | 1011.9 |
| 20260508035549 | 47 | 331 | 8.7 | 14.8 | 0.00 | 0.03 | 0.02 | 73 | 1012.0 |
| 20260508035049 | 47 | 330 | 9.6 | 14.8 | 0.00 | 0.03 | 0.02 | 73 | 1011.8 |
| 20260508034558 | 48 | 333 | 9.6 | 17.4 | 0.00 | 0.03 | 0.02 | 73 | 1011.8 |
| 20260508034048 | 48 | 328 | 9.6 | 18.2 | 0.00 | 0.03 | 0.02 | 72 | 1011.7 |
| 20260508033545 | 48 | 332 | 10.4 | 20.0 | 0.00 | 0.03 | 0.02 | 72 | 1011.8 |
| 20260508033058 | 48 | 328 | 13.0 | 20.0 | 0.00 | 0.03 | 0.02 | 72 | 1011.7 |
| 20260508032549 | 48 | 335 | 9.6 | 19.1 | 0.00 | 0.03 | 0.02 | 73 | 1011.5 |
| 20260508032049 | 48 | 317 | 11.3 | 18.2 | 0.00 | 0.03 | 0.02 | 73 | 1011.3 |
| 20260508031551 | 48 | 333 | 8.7 | 16.5 | 0.00 | 0.03 | 0.02 | 73 | 1011.5 |
| 20260508031052 | 48 | 330 | 8.7 | 18.2 | 0.00 | 0.03 | 0.02 | 74 | 1011.7 |
| 20260508030548 | 48 | 333 | 9.6 | 18.2 | 0.00 | 0.03 | 0.02 | 73 | 1011.6 |
| 20260508025548 | 48 | 349 | 9.6 | 20.9 | 0.00 | 0.04 | 0.02 | 73 | 1011.4 |
| 20260508025046 | 49 | 333 | 11.3 | 20.9 | 0.00 | 0.04 | 0.02 | 73 | 1011.4 |
| 20260508024556 | 49 | 320 | 12.2 | 18.2 | 0.00 | 0.04 | 0.02 | 73 | 1011.2 |
| 20260508024047 | 49 | 342 | 8.7 | 15.6 | 0.00 | 0.04 | 0.02 | 73 | 1011.3 |
| 20260508023546 | 49 | 338 | 9.6 | 17.4 | 0.00 | 0.04 | 0.02 | 73 | 1011.1 |
| 20260508023050 | 49 | 332 | 9.6 | 17.4 | 0.00 | 0.04 | 0.02 | 73 | 1011.2 |
| 20260508022545 | 49 | 340 | 8.7 | 15.6 | 0.00 | 0.04 | 0.02 | 73 | 1011.0 |
| 20260508022048 | 49 | 349 | 8.7 | 20.0 | 0.00 | 0.04 | 0.02 | 74 | 1011.0 |
| 20260508021552 | 49 | 346 | 9.6 | 20.0 | 0.00 | 0.04 | 0.02 | 73 | 1011.0 |
| 20260508021048 | 49 | 340 | 11.3 | 20.0 | 0.00 | 0.04 | 0.02 | 73 | 1010.9 |
| 20260508020545 | 49 | 342 | 9.6 | 19.1 | 0.00 | 0.04 | 0.02 | 73 | 1010.9 |
| 20260508020053 | 49 | 342 | 9.6 | 17.4 | 0.00 | 0.04 | 0.02 | 73 | 1010.8 |
| 20260508015550 | 49 | 338 | 9.6 | 17.4 | 0.00 | 0.04 | 0.02 | 73 | 1010.7 |
| 20260508015048 | 49 | 357 | 10.4 | 21.7 | 0.00 | 0.04 | 0.02 | 73 | 1010.5 |
| 20260508014554 | 49 | 314 | 11.3 | 21.7 | 0.00 | 0.04 | 0.02 | 73 | 1010.6 |
| 20260508014049 | 49 | 320 | 11.3 | 20.0 | 0.00 | 0.04 | 0.02 | 73 | 1010.6 |
| 20260508013548 | 49 | 334 | 11.3 | 17.4 | 0.00 | 0.04 | 0.02 | 73 | 1010.5 |
| 20260508013052 | 49 | 335 | 9.6 | 17.4 | 0.00 | 0.04 | 0.02 | 73 | 1010.4 |
| 20260508012550 | 49 | 319 | 9.6 | 17.4 | 0.00 | 0.04 | 0.02 | 74 | 1010.3 |
| 20260508012048 | 49 | 314 | 8.7 | 15.6 | 0.00 | 0.04 | 0.02 | 74 | 1010.1 |
| 20260508011604 | 49 | 341 | 8.7 | 13.9 | 0.00 | 0.04 | 0.02 | 74 | 1010.1 |
| 20260508011049 | 49 | 333 | 7.8 | 13.9 | 0.00 | 0.04 | 0.02 | 74 | 1010.1 |
| 20260508010548 | 49 | 328 | 6.1 | 13.9 | 0.00 | 0.04 | 0.02 | 75 | 1009.9 |
| 20260508010052 | 49 | 332 | 7.8 | 13.9 | 0.00 | 0.04 | 0.02 | 74 | 1009.9 |
| 20260508005547 | 49 | 347 | 5.2 | 13.9 | 0.00 | 0.04 | 0.02 | 75 | 1009.8 |
| 20260508005050 | 49 | 352 | 5.2 | 12.2 | 0.00 | 0.04 | 0.02 | 75 | 1009.9 |
| 20260508004555 | 49 | 334 | 6.1 | 12.2 | 0.00 | 0.04 | 0.02 | 75 | 1009.7 |
| 20260508004046 | 49 | 358 | 4.3 | 9.6 | 0.00 | 0.04 | 0.02 | 75 | 1009.8 |
| 20260508003545 | 49 | 330 | 2.6 | 7.8 | 0.00 | 0.04 | 0.02 | 75 | 1010.0 |
| 20260508003050 | 49 | 332 | 3.5 | 10.4 | 0.00 | 0.04 | 0.02 | 74 | 1009.9 |
| 20260508002548 | 49 | 321 | 5.2 | 10.4 | 0.00 | 0.04 | 0.02 | 74 | 1010.0 |
| 20260508002048 | 49 | 331 | 6.1 | 10.4 | 0.00 | 0.04 | 0.02 | 74 | 1010.0 |
| 20260508001552 | 49 | 312 | 5.2 | 13.0 | 0.00 | 0.04 | 0.02 | 74 | 1010.0 |
| 20260508001048 | 50 | 331 | 4.3 | 13.0 | 0.00 | 0.04 | 0.02 | 73 | 1009.8 |
| 20260508000548 | 50 | 349 | 5.2 | 12.2 | 0.00 | 0.04 | 0.02 | 73 | 1010.0 |
| 20260508000057 | 50 | 303 | 6.1 | 12.2 | 0.00 | 0.04 | 0.02 | 72 | 1010.0 |
| 20260507235547 | 50 | 322 | 6.1 | 13.0 | 0.00 | 0.04 | 0.02 | 71 | 1009.9 |
| 20260507235048 | 51 | 321 | 7.0 | 13.0 | 0.00 | 0.04 | 0.02 | 71 | 1009.9 |
| 20260507234604 | 51 | 324 | 7.8 | 13.9 | 0.00 | 0.04 | 0.02 | 71 | 1009.9 |
| 20260507234046 | 51 | 297 | 5.2 | 13.9 | 0.00 | 0.04 | 0.02 | 70 | 1009.9 |
| 20260507233548 | 51 | 333 | 5.2 | 14.8 | 0.00 | 0.04 | 0.02 | 69 | 1010.0 |
| 20260507233055 | 52 | 325 | 8.7 | 14.8 | 0.00 | 0.04 | 0.02 | 69 | 1009.9 |
| 20260507232547 | 52 | 333 | 7.8 | 14.8 | 0.00 | 0.04 | 0.02 | 68 | 1010.0 |
| 20260507232048 | 52 | 318 | 7.8 | 15.6 | 0.00 | 0.04 | 0.02 | 67 | 1010.0 |
| 20260507231558 | 53 | 340 | 9.6 | 19.1 | 0.00 | 0.04 | 0.02 | 67 | 1009.8 |
| 20260507231047 | 53 | 336 | 9.6 | 26.1 | 0.00 | 0.04 | 0.02 | 67 | 1009.7 |
| 20260507230548 | 53 | 338 | 14.8 | 26.1 | 0.00 | 0.04 | 0.02 | 65 | 1009.6 |
| 20260507230058 | 53 | 335 | 12.2 | 21.7 | 0.00 | 0.04 | 0.02 | 65 | 1009.5 |
| 20260507225547 | 54 | 333 | 10.4 | 20.9 | 0.00 | 0.04 | 0.02 | 64 | 1009.5 |
| 20260507225046 | 54 | 338 | 13.0 | 20.9 | 0.00 | 0.04 | 0.02 | 64 | 1009.6 |
| 20260507224556 | 55 | 343 | 7.8 | 18.2 | 0.00 | 0.04 | 0.02 | 63 | 1009.5 |
| 20260507224048 | 55 | 352 | 6.1 | 15.6 | 0.00 | 0.04 | 0.02 | 64 | 1009.5 |
| 20260507223550 | 55 | 349 | 3.5 | 15.6 | 0.00 | 0.04 | 0.02 | 66 | 1009.7 |
| 20260507223100 | 55 | 345 | 8.7 | 15.6 | 0.00 | 0.04 | 0.02 | 66 | 1009.6 |
| 20260507222548 | 55 | 360 | 6.1 | 11.3 | 0.00 | 0.04 | 0.02 | 68 | 1009.6 |
| 20260507222048 | 55 | 317 | 6.1 | 13.9 | 0.00 | 0.04 | 0.02 | 69 | 1009.6 |
| 20260507221557 | 55 | 305 | 7.0 | 16.5 | 0.00 | 0.04 | 0.02 | 69 | 1009.6 |
| 20260507221050 | 55 | 7 | 9.6 | 16.5 | 0.00 | 0.04 | 0.02 | 69 | 1009.6 |
| 20260507220548 | 55 | 347 | 10.4 | 16.5 | 0.00 | 0.04 | 0.02 | 71 | 1009.4 |
| 20260507220053 | 55 | 318 | 9.6 | 17.4 | 0.00 | 0.04 | 0.02 | 71 | 1009.3 |
| 20260507215549 | 54 | 333 | 5.2 | 17.4 | 0.00 | 0.04 | 0.02 | 73 | 1009.3 |
| 20260507215048 | 55 | 328 | 5.2 | 13.9 | 0.00 | 0.04 | 0.02 | 71 | 1009.2 |
| 20260507214600 | 56 | 328 | 6.1 | 13.9 | 0.00 | 0.04 | 0.02 | 72 | 1009.3 |
| 20260507214047 | 56 | 338 | 7.0 | 13.0 | 0.00 | 0.04 | 0.02 | 71 | 1009.2 |
| 20260507213548 | 55 | 338 | 7.0 | 12.2 | 0.00 | 0.04 | 0.02 | 71 | 1009.2 |
| 20260507213051 | 56 | 236 | 5.2 | 11.3 | 0.00 | 0.04 | 0.02 | 71 | 1009.2 |
| 20260507212548 | 56 | 309 | 4.3 | 11.3 | 0.00 | 0.04 | 0.02 | 73 | 1009.0 |
| 20260507212047 | 55 | 333 | 6.1 | 13.9 | 0.00 | 0.04 | 0.02 | 74 | 1009.0 |
| 20260507211555 | 54 | 347 | 7.0 | 16.5 | 0.00 | 0.04 | 0.02 | 76 | 1009.1 |
| 20260507211048 | 53 | 320 | 11.3 | 19.1 | 0.00 | 0.04 | 0.02 | 77 | 1009.0 |
| 20260507210548 | 54 | 311 | 11.3 | 19.1 | 0.00 | 0.04 | 0.02 | 75 | 1009.0 |
| 20260507210057 | 54 | 309 | 9.6 | 19.1 | 0.00 | 0.04 | 0.02 | 75 | 1008.9 |
| 20260507205549 | 55 | 249 | 6.1 | 20.9 | 0.00 | 0.04 | 0.02 | 75 | 1008.8 |
| 20260507205054 | 55 | 330 | 7.0 | 20.9 | 0.00 | 0.04 | 0.02 | 74 | 1008.7 |
| 20260507204605 | 55 | 327 | 12.2 | 18.2 | 0.00 | 0.04 | 0.02 | 75 | 1008.6 |
| 20260507204048 | 56 | 334 | 7.8 | 16.5 | 0.00 | 0.04 | 0.02 | 74 | 1008.5 |
| 20260507203548 | 57 | 326 | 8.7 | 17.4 | 0.00 | 0.04 | 0.02 | 74 | 1008.4 |
| 20260507203107 | 56 | 324 | 6.1 | 21.7 | 0.00 | 0.04 | 0.02 | 77 | 1008.4 |
| 20260507202547 | 55 | 334 | 7.8 | 21.7 | 0.00 | 0.04 | 0.02 | 77 | 1008.3 |
| 20260507202047 | 55 | 328 | 8.7 | 19.1 | 0.00 | 0.04 | 0.02 | 77 | 1008.5 |
| 20260507201604 | 55 | 333 | 10.4 | 19.1 | 0.00 | 0.04 | 0.02 | 77 | 1008.2 |
| 20260507201048 | 55 | 342 | 12.2 | 18.2 | 0.00 | 0.04 | 0.02 | 78 | 1008.2 |
| 20260507200548 | 55 | 332 | 8.7 | 15.6 | 0.00 | 0.04 | 0.02 | 78 | 1008.2 |
| 20260507200058 | 54 | 315 | 7.0 | 13.9 | 0.00 | 0.04 | 0.02 | 79 | 1008.3 |
| 20260507195550 | 54 | 328 | 7.8 | 13.0 | 0.00 | 0.04 | 0.02 | 81 | 1008.3 |
| 20260507195048 | 54 | 356 | 4.3 | 13.9 | 0.00 | 0.04 | 0.02 | 82 | 1008.5 |
| 20260507194554 | 54 | 348 | 6.1 | 13.9 | 0.00 | 0.04 | 0.02 | 81 | 1008.6 |
| 20260507194048 | 54 | 318 | 9.6 | 13.9 | 0.00 | 0.04 | 0.02 | 80 | 1008.6 |
| 20260507193548 | 54 | 340 | 6.1 | 9.6 | 0.00 | 0.04 | 0.02 | 81 | 1008.6 |
| 20260507193059 | 54 | 345 | 2.6 | 14.8 | 0.00 | 0.04 | 0.02 | 82 | 1008.7 |
| 20260507192547 | 54 | 327 | 7.0 | 15.6 | 0.00 | 0.04 | 0.02 | 82 | 1008.7 |
| 20260507192048 | 54 | 314 | 9.6 | 15.6 | 0.00 | 0.04 | 0.02 | 81 | 1008.8 |
| 20260507191554 | 54 | 9 | 9.6 | 15.6 | 0.00 | 0.04 | 0.02 | 81 | 1008.9 |
| 20260507191047 | 55 | 335 | 7.8 | 12.2 | 0.00 | 0.04 | 0.02 | 81 | 1008.9 |
| 20260507190547 | 55 | 339 | 7.0 | 13.9 | 0.00 | 0.04 | 0.02 | 81 | 1008.8 |
| 20260507190055 | 55 | 358 | 8.7 | 13.9 | 0.00 | 0.04 | 0.02 | 81 | 1008.8 |
| 20260507185547 | 55 | 352 | 7.0 | 13.9 | 0.00 | 0.04 | 0.02 | 83 | 1009.1 |
| 20260507185051 | 54 | 347 | 9.6 | 14.8 | 0.00 | 0.04 | 0.02 | 83 | 1008.9 |
| 20260507184557 | 53 | 325 | 9.6 | 14.8 | 0.00 | 0.04 | 0.02 | 84 | 1009.0 |
| 20260507184047 | 53 | 349 | 7.8 | 14.8 | 0.00 | 0.04 | 0.02 | 85 | 1009.0 |
| 20260507183547 | 53 | 349 | 7.8 | 13.0 | 0.00 | 0.04 | 0.02 | 86 | 1009.1 |
| 20260507183100 | 52 | 340 | 7.8 | 13.0 | 0.00 | 0.04 | 0.02 | 85 | 1009.1 |
| 20260507182547 | 53 | 336 | 7.8 | 13.9 | 0.00 | 0.04 | 0.02 | 85 | 1009.1 |
| 20260507182047 | 53 | 341 | 8.7 | 13.9 | 0.00 | 0.04 | 0.02 | 86 | 1009.0 |
| 20260507181553 | 52 | 342 | 9.6 | 13.9 | 0.00 | 0.04 | 0.02 | 85 | 1008.9 |
| 20260507181047 | 53 | 327 | 7.8 | 13.0 | 0.00 | 0.04 | 0.02 | 85 | 1009.2 |
| 20260507180550 | 53 | 326 | 6.1 | 9.6 | 0.00 | 0.04 | 0.02 | 86 | 1009.2 |
| 20260507180057 | 53 | 330 | 5.2 | 9.6 | 0.00 | 0.04 | 0.02 | 86 | 1009.2 |
| 20260507175546 | 53 | 342 | 5.2 | 8.7 | 0.00 | 0.05 | 0.02 | 86 | 1009.2 |
| 20260507175049 | 53 | 2 | 3.5 | 9.6 | 0.00 | 0.05 | 0.02 | 87 | 1009.1 |
| 20260507174604 | 52 | 337 | 4.3 | 10.4 | 0.00 | 0.05 | 0.02 | 88 | 1009.0 |
| 20260507174047 | 52 | 346 | 4.3 | 10.4 | 0.00 | 0.05 | 0.02 | 87 | 1009.0 |
| 20260507173547 | 52 | 356 | 3.5 | 10.4 | 0.00 | 0.05 | 0.02 | 87 | 1008.9 |
| 20260507173100 | 52 | 359 | 5.2 | 7.0 | 0.00 | 0.05 | 0.02 | 88 | 1009.1 |
| 20260507172549 | 52 | 19 | 2.6 | 7.0 | 0.00 | 0.05 | 0.02 | 89 | 1009.2 |
| 20260507172048 | 52 | 356 | 3.5 | 7.8 | 0.00 | 0.05 | 0.02 | 89 | 1009.2 |
| 20260507171614 | 52 | 6 | 4.3 | 7.8 | 0.00 | 0.05 | 0.02 | 88 | 1009.1 |
| 20260507171049 | 52 | 332 | 4.3 | 7.0 | 0.00 | 0.05 | 0.02 | 90 | 1009.1 |
| 20260507170547 | 51 | 352 | 1.7 | 6.1 | 0.00 | 0.05 | 0.02 | 90 | 1009.2 |
| 20260507170057 | 51 | 356 | 3.5 | 7.0 | 0.00 | 0.05 | 0.02 | 90 | 1009.1 |
| 20260507165548 | 51 | 6 | 2.6 | 7.0 | 0.00 | 0.05 | 0.02 | 91 | 1009.2 |
| 20260507165047 | 50 | 345 | 4.3 | 7.8 | 0.00 | 0.05 | 0.02 | 91 | 1009.2 |
| 20260507164606 | 50 | 6 | 5.2 | 9.6 | 0.00 | 0.05 | 0.02 | 91 | 1009.5 |
| 20260507164048 | 50 | 354 | 6.1 | 9.6 | 0.00 | 0.05 | 0.02 | 91 | 1009.6 |
| 20260507163547 | 50 | 350 | 6.1 | 11.3 | 0.00 | 0.05 | 0.02 | 92 | 1009.4 |
| 20260507163055 | 50 | 343 | 7.0 | 11.3 | 0.00 | 0.05 | 0.02 | 92 | 1009.5 |
| 20260507162546 | 50 | 338 | 7.0 | 10.4 | 0.00 | 0.05 | 0.02 | 92 | 1009.5 |
| 20260507162047 | 51 | 345 | 6.1 | 10.4 | 0.00 | 0.05 | 0.02 | 92 | 1009.4 |
| 20260507161604 | 51 | 339 | 4.3 | 8.7 | 0.00 | 0.05 | 0.02 | 93 | 1009.4 |
| 20260507161047 | 51 | 359 | 2.6 | 7.8 | 0.00 | 0.05 | 0.02 | 93 | 1009.5 |
| 20260507160548 | 51 | 357 | 3.5 | 7.8 | 0.00 | 0.05 | 0.02 | 93 | 1009.5 |
| 20260507160059 | 51 | 8 | 4.3 | 7.0 | 0.00 | 0.05 | 0.02 | 93 | 1009.5 |
| 20260507155546 | 51 | 2 | 3.5 | 9.6 | 0.00 | 0.05 | 0.02 | 93 | 1009.5 |
| 20260507155047 | 51 | 11 | 5.2 | 9.6 | 0.00 | 0.05 | 0.02 | 93 | 1009.5 |
| 20260507154554 | 51 | 353 | 3.5 | 7.8 | 0.00 | 0.05 | 0.02 | 94 | 1009.5 |
| 20260507154047 | 51 | 6 | 4.3 | 7.8 | 0.00 | 0.05 | 0.02 | 93 | 1009.5 |
| 20260507153546 | 51 | 1 | 4.3 | 7.8 | 0.00 | 0.05 | 0.02 | 93 | 1009.6 |
| 20260507153050 | 51 | 15 | 5.2 | 7.8 | 0.00 | 0.05 | 0.02 | 93 | 1009.5 |
| 20260507152544 | 51 | 8 | 3.5 | 8.7 | 0.00 | 0.05 | 0.02 | 93 | 1009.5 |
| 20260507152049 | 52 | 4 | 6.1 | 8.7 | 0.00 | 0.05 | 0.02 | 93 | 1009.6 |
| 20260507151556 | 52 | 6 | 4.3 | 8.7 | 0.00 | 0.05 | 0.02 | 93 | 1009.6 |
| 20260507151049 | 52 | 356 | 3.5 | 8.7 | 0.00 | 0.05 | 0.02 | 92 | 1009.5 |
| 20260507150547 | 52 | 6 | 4.3 | 8.7 | 0.00 | 0.05 | 0.02 | 92 | 1009.7 |
| 20260507145546 | 53 | 14 | 2.6 | 6.1 | 0.00 | 0.05 | 0.02 | 93 | 1009.5 |
| 20260507145046 | 53 | 4 | 3.5 | 6.1 | 0.00 | 0.05 | 0.02 | 93 | 1009.6 |
| 20260507144552 | 53 | 10 | 3.5 | 6.1 | 0.00 | 0.05 | 0.02 | 94 | 1009.4 |
| 20260507144047 | 53 | 11 | 0.9 | 4.3 | 0.00 | 0.05 | 0.02 | 94 | 1009.4 |
| 20260507143546 | 53 | 3 | 1.7 | 4.3 | 0.00 | 0.05 | 0.02 | 93 | 1009.4 |
| 20260507143103 | 52 | 17 | 1.7 | 4.3 | 0.00 | 0.05 | 0.02 | 93 | 1009.5 |
| 20260507142550 | 53 | 13 | 1.7 | 5.2 | 0.00 | 0.05 | 0.02 | 93 | 1009.4 |
| 20260507142047 | 53 | 15 | 2.6 | 5.2 | 0.00 | 0.05 | 0.02 | 93 | 1009.2 |
| 20260507141602 | 53 | 8 | 0.9 | 4.3 | 0.00 | 0.05 | 0.02 | 93 | 1009.3 |
| 20260507141049 | 53 | 1 | 1.7 | 4.3 | 0.00 | 0.05 | 0.02 | 93 | 1009.5 |
| 20260507140548 | 53 | 3 | 1.7 | 6.1 | 0.00 | 0.05 | 0.02 | 94 | 1009.3 |
| 20260507140059 | 52 | 356 | 3.5 | 8.7 | 0.00 | 0.05 | 0.02 | 94 | 1009.3 |
| 20260507135546 | 52 | 8 | 2.6 | 8.7 | 0.00 | 0.10 | 0.02 | 94 | 1009.3 |
| 20260507135047 | 53 | 342 | 4.3 | 8.7 | 0.00 | 0.10 | 0.02 | 94 | 1009.5 |
| 20260507134558 | 53 | 13 | 2.6 | 8.7 | 0.00 | 0.10 | 0.02 | 94 | 1009.4 |
| 20260507134046 | 52 | 347 | 1.7 | 7.8 | 0.00 | 0.10 | 0.02 | 94 | 1009.5 |
| 20260507133547 | 52 | 16 | 1.7 | 5.2 | 0.00 | 0.10 | 0.02 | 94 | 1009.4 |
| 20260507133059 | 52 | 23 | 1.7 | 6.1 | 0.00 | 0.10 | 0.02 | 94 | 1009.2 |
| 20260507132545 | 53 | 11 | 3.5 | 6.1 | 0.00 | 0.10 | 0.02 | 94 | 1009.1 |
| 20260507132050 | 53 | 8 | 3.5 | 5.2 | 0.00 | 0.10 | 0.02 | 94 | 1009.0 |